[Iaude] MPEC L61: 2024 LD1 [a=2.21,e=0.51,i=10.1,H=21.0]

mpec at cfa.harvard.edu mpec at cfa.harvard.edu
Thu Jun 6 06:17:38 EDT 2024


M.P.E.C. 2024-L61                                  Issued 2024 June 6, 10:16 UT

     The Minor Planet Electronic Circulars contain information on unusual
         minor planets, routine data on comets and natural satellites,
         and occasional editorial announcements.  They are published
    on behalf of Division F of the International Astronomical Union by the
          Minor Planet Center, Smithsonian Astrophysical Observatory,
                          Cambridge, MA 02138, U.S.A.
			  
             Prepared using the Tamkin Foundation Computer Network

                              MPC at CFA.HARVARD.EDU
            URL https://www.minorplanetcenter.net/    ISSN 1523-6714

                                    2024 LD1                                    


Observations:
     K24L01D*KC2024 06 04.30219 22 13 12.16 -33 55 57.8          19.6 rqEL061X74
     K24L01D KC2024 06 04.30737 22 13 13.79 -33 55 30.6          19.1 rqEL061X74
     K24L01D KC2024 06 04.31237 22 13 15.34 -33 55 04.4          19.6 rqEL061X74
     K24L01D KC2024 06 04.57150922 14 42.830-33 31 32.56         19.7 GVEL061474
     K24L01D KC2024 06 04.57399522 14 43.642-33 31 19.52         19.8 GVEL061474
     K24L01D KC2024 06 04.57648022 14 44.434-33 31 06.46         20.0 GVEL061474
     K24L01D KC2024 06 04.57896422 14 45.257-33 30 53.46         19.9 GVEL061474
     K24L01D KC2024 06 04.66503022 15 12.744-33 23 18.56         19.7 GVEL061474
     K24L01D KC2024 06 04.66627222 15 13.121-33 23 12.01         20.0 GVEL061474
     K24L01D KC2024 06 04.66751522 15 13.522-33 23 05.24         19.9 GVEL061474
     K24L01D KC2024 06 04.66875722 15 13.922-33 22 58.87         20.0 GVEL061474
     K24L01D 0B2024 06 05.07914 22 17 28.865-32 46 21.86         18.9 VZEL061M49
     K24L01D 0B2024 06 05.08245 22 17 29.892-32 46 03.97         19.4 VZEL061M49
     K24L01D 0B2024 06 05.08575 22 17 30.895-32 45 46.76         19.6 VZEL061M49
     K24L01D KC2024 06 06.27233 22 23 47.31 -30 57 57.2          19.7 rqEL061X74
     K24L01D KC2024 06 06.27913 22 23 49.33 -30 57 20.3          19.8 rqEL061X74
     K24L01D KC2024 06 06.28589 22 23 51.29 -30 56 43.8          19.9 rqEL061X74

Observer details:
474 Mount John Observatory, Lake Tekapo.  Observers A. C. Gilmore, P. M.
    Kilmartin.  Measurer P. M. Kilmartin.  1.0-m f/7.7 Reflector + CCD.
M49 IAS Remote Observatory, Hakos.  Observers D. Husar, M. Junius, L. Demetz,
    P. Ditz, R. Hellot, T. Steinbach, A. Karacali, T. Daiber.  Measurer D.
    Husar.  0.25-m f/4.5 reflector + CMO.
X74 Observatorio Campo dos Amarais.  Observer L. S. Amaral.  0.31-m f/3.4
    Newtonian + CCD.

Orbital elements:
2024 LD1                                                 Earth MOID = 0.0617 AU
Epoch 2024 Mar. 31.0 TT = JDT 2460400.5                 MPC                     
M 335.18678              (2000.0)            P               Q                  
n   0.29957854     Peri.  356.62069     +0.19827366     +0.96534927             
a   2.2120533      Node   284.76364     -0.89510279     +0.10780595             
e   0.5126950      Incl.   10.10567     -0.39934766     +0.23765239             
P   3.29           H   21.03          G   0.15           U   9                  
Residuals in seconds of arc
240604 X74  0.1+  0.2+    240604 474  0.1+  0.0     240605 M49  0.1+  0.3+
240604 X74  0.1+  0.0     240604 474  0.0   0.1-    240605 M49  0.1-  0.1-
240604 X74  0.2-  0.2-    240604 474  0.2-  0.1-    240606 X74  0.2-  0.1+
240604 474  0.0   0.1+    240604 474  0.1-  0.0     240606 X74  0.2+  0.1+
240604 474  0.0   0.0     240604 474  0.0   0.2-    240606 X74  0.0   0.1-
240604 474  0.1-  0.0     240605 M49  0.0   0.1+

Ephemeris:
2024 LD1                 a,e,i = 2.21, 0.51, 10                  q = 1.0779
Date    TT    R. A. (2000) Decl.     Delta      r    Elong.  Phase     V
2024 05 07    18 31 18.8 -55 36 22   0.3000  1.2026   124.0    44.1    20.5
...
2024 05 22    20 39 51.6 -49 49 54   0.2303  1.1372   117.6    52.1    20.0
...
2024 05 30    21 40 32.2 -41 18 14   0.2079  1.1111   112.9    57.2    19.9
...
2024 06 05    22 17 01.0 -32 53 30   0.1989  1.0962   109.2    61.0    19.9
2024 06 06    22 22 20.4 -31 22 52   0.1980  1.0941   108.6    61.5    19.9
2024 06 07    22 27 27.7 -29 51 01   0.1974  1.0921   108.0    62.1    19.9
...
2024 06 13    22 54 15.8 -20 28 14   0.1973  1.0830   104.8    65.0    20.0
...
2024 06 21    23 21 21.4 -08 26 17   0.2063  1.0780   102.0    67.3    20.1
...
2024 07 06    23 53 42.0 +09 32 26   0.2411  1.0909   101.6    65.9    20.5

A. U. Tomatic                (C) Copyright 2024 MPC           M.P.E.C. 2024-L61





More information about the Iaude mailing list